{"data":{"norad_id":66762,"intl_designator":"2025-276DA","name":"HYDROGNSS-1","alt_names":[],"object_type":"PAYLOAD","status":"ACTIVE","operator":null,"country":"ESA","launch_date":"2025-11-28","launch_site_code":"AFWTR","launch_vehicle":null,"mission":null,"orbit_class":"UNKNOWN","rcs_meters":null,"size_class":null,"mass_kg":null,"dimensions":null,"purposes":[],"wikipedia_slug":null,"has_3d_model":false,"image_url":null,"decayed_at":null,"tle_current":{"epoch":"2026-05-25T03:52:26.065920Z","epoch_age_seconds":55133,"freshness":"FRESH","line1":"1 66762U 25276DA  26145.16141280  .00002913  00000+0  17639-3 0  9993","line2":"2 66762  97.4205 218.3346 0012418 126.1866 234.0515 15.11315037 26879","mean_motion":15.11315037,"eccentricity":0.0012418,"inclination_deg":97.4205,"raan_deg":218.3346,"arg_perigee_deg":126.1866,"mean_anomaly_deg":234.0515,"bstar":0.00017639,"rev_number":2687,"period_min":95.281259350032,"perigee_km":523.60727508301,"apogee_km":540.7697595378,"semimajor_km":6910.3255173104,"source":"CELESTRAK","updated_at":"2026-05-25T13:38:06.454984Z"}}}